Regional Weather Roundup
Issued by NWS

Home | Current Version | Previous Version | Graphics & Text | Print | Product List | Glossary On
Versions: 1 2 3 4 5 6 7 8 9 10 11 12 13 14 15 16 17 18 19 20 21 22 23 24 25 26 27 28 29 30 31 32 33 34 35 36 37 38 39 40 41 42 43 44 45 46 47 48 49 50
000
ASUS45 KSLC 282110
RWRUT

UTAH REGIONAL WEATHER ROUNDUP
NATIONAL WEATHER SERVICE SALT LAKE CITY UT
300 PM MDT FRI AUG 28 2015

UTZ001>011-023>025-282200-

NORTHERN UTAH

CITY           SKY/WX    TMP DP  RH WIND       PRES   REMARKS
BRIGHAM CITY   SUNNY     90  30  11 S5        30.14F
HILL AFB       MOSUNNY   89  36  15 VRB5      30.17F
LOGAN          SUNNY     90  41  18 NW7       30.14F
OGDEN          SUNNY     91  39  16 CALM      30.14F
PROVO AIRPORT  NOT AVBL
SALT LAKE CITY MOSUNNY   93  31  11 NW6       30.11F
VERNAL         MOSUNNY   83  37  19 S6        30.23F
WENDOVER       SUNNY     91  41  17 E6        30.12F
HEBER CITY     SUNNY     88  30  12 CALM      30.22F
WEST JORDAN    SUNNY     90  39  17 S5        30.16F

$$

UTZ012>022-026-027-282200-

SOUTHERN/CENTRAL UTAH

CITY           SKY/WX    TMP DP  RH WIND       PRES   REMARKS
BLANDING       MOSUNNY   87  35  16 N8        30.30F
BRYCE CANYON   MOSUNNY   78  41  26 E9        30.39F
CEDAR CITY     MOSUNNY   88  37  16 NW7       30.21F
DELTA          SUNNY     91  30  11 NE5       30.16F
HANKSVILLE     SUNNY     90  36  14 NE3       30.17F
MILFORD        MOSUNNY   91  39  16 CALM      30.15F
MOAB/CYNLANDS  SUNNY     91  38  15 N9        30.14F
PRICE          SUNNY     86  33  15 MISG      30.26F
ST GEORGE      CLEAR     99  46  16 W3        30.02F HX  95
KANAB          SUNNY     90  45  20 CALM      30.23F

$$

REGIONAL REPORTS     COLORADO/ARIZONA

CITY           SKY/WX    TMP DP  RH WIND       PRES   REMARKS
CRAIG, CO      SUNNY     81  40  23 E6        30.30F
GRAND JUNCTION SUNNY     85  45  24 SW8       30.19F
RIFLE          SUNNY     82  42  24 VRB7      30.24F
MONTROSE       SUNNY     83  45  26 NW12      30.28F
CORTEZ         SUNNY     87  39  18 NW16G25   30.21F
PAGE, AZ       SUNNY     93  44  18 N8        30.13F
GRAND CANYON   PTSUNNY   76  45  33 SW6       30.33F
KINGMAN        MOSUNNY   96  45  17 N12       30.05F HX  92
FLAGSTAFF      MOSUNNY   73  48  41 E3        30.36S

$$

REGIONAL REPORTS    NEVADA/IDAHO/WYOMING

CITY           SKY/WX    TMP DP  RH WIND       PRES   REMARKS
LAS VEGAS, NV  PTSUNNY  102  49  16 VRB7      29.90F HX  99
ELY            PTSUNNY   77  50  38 SE12      30.25S
ELKO           MOSUNNY   91  38  15 S8G20     30.10F
POCATELLO, ID  MOSUNNY   91  43  18 NW7       30.12F
EVANSTON, WY   PTSUNNY   80  35  19 N13       30.34F
ROCK SPRINGS   SUNNY     81  31  16 MISG      30.32F
KEMMERER       MOSUNNY   79  28  15 CALM      30.36F

$$


USA.gov is the U.S. government's official web portal to all federal, state and local government web resources and services.